KI4SSU Weather Reports


Display with metric or nautical units.
time (UTC)temp
F
wind
direction
speed
MPH
gust
MPH
rain 1hr
in
rain 24hr
in
rain mn
in
humidity
%
barometer
mb
20260505041623 75 263 5.0 5.0 0.00 0.00 0.00
20260505041123 75 241 6.0 6.0 0.00 0.00 0.00
20260505040623 75 152 3.0 4.0 0.00 0.00 0.00
20260505040123 75 241 2.0 1.0 0.00 0.00 0.00
20260505035623 75 173 4.0 3.0 0.00 0.00 0.00
20260505035124 75 242 6.0 7.0 0.00 0.00 0.00
20260505034623 75 297 2.0 4.0 0.00 0.00 0.00
20260505034123 75 256 4.0 10.0 0.00 0.00 0.00
20260505033623 75 235 4.0 3.0 0.00 0.00 0.00
20260505033123 75 306 5.0 5.0 0.00 0.00 0.00
20260505032623 75 87 6.0 2.0 0.00 0.00 0.00
20260505032123 75 276 4.0 7.0 0.00 0.00 0.00
20260505031624 75 225 6.0 5.0 0.00 0.00 0.00
20260505031206 76 82 2.0 4.0 0.00 0.00 0.00
20260505031124 76 82 2.0 4.0 0.00 0.00 0.00
20260505030624 76 269 4.0 4.0 0.00 0.00 0.00
20260505030124 75 235 3.0 4.0 0.00 0.00 0.00
20260505025624 75 176 3.0 4.0 0.00 0.00 0.00
20260505025124 75 183 4.0 4.0 0.00 0.00 0.00
20260505024624 75 200 2.0 5.0 0.00 0.00 0.00
20260505024124 75 122 3.0 3.0 0.00 0.00 0.00
20260505023624 75 120 1.0 2.0 0.00 0.00 0.00
20260505023124 75 193 2.0 6.0 0.00 0.00 0.00
20260505022624 75 162 3.0 2.0 0.00 0.00 0.00
20260505022124 76 6 3.0 3.0 0.00 0.00 0.00
20260505021624 76 156 3.0 3.0 0.00 0.00 0.00
20260505021124 76 214 2.0 3.0 0.00 0.00 0.00
20260505020624 76 156 2.0 3.0 0.00 0.00 0.00
20260505020124 76 173 2.0 5.0 0.00 0.00 0.00
20260505015624 76 218 2.0 3.0 0.00 0.00 0.00
20260505015124 76 155 2.0 4.0 0.00 0.00 0.00
20260505014624 76 183 3.0 4.0 0.00 0.00 0.00
20260505013624 76 210 4.0 3.0 0.00 0.00 0.00
20260505013124 76 217 3.0 5.0 0.00 0.00 0.00
20260505012124 76 148 2.0 3.0 0.00 0.00 0.00
20260505011624 77 190 7.0 7.0 0.00 0.00 0.00
20260505011124 76 208 4.0 4.0 0.00 0.00 0.00
20260505010624 77 175 3.0 5.0 0.00 0.00 0.00
20260505010125 77 244 2.0 5.0 0.00 0.00 0.00
20260505005625 77 325 1.0 2.0 0.00 0.00 0.00
20260505005124 77 170 3.0 9.0 0.00 0.00 0.00
20260505004624 77 214 5.0 5.0 0.00 0.00 0.00
20260505004125 77 172 3.0 4.0 0.00 0.00 0.00
20260505003624 77 69 2.0 2.0 0.00 0.00 0.00
20260505003124 78 137 2.0 4.0 0.00 0.00 0.00
20260505002625 78 210 5.0 8.0 0.00 0.00 0.00
20260505002124 78 267 3.0 6.0 0.00 0.00 0.00
20260505001625 78 155 2.0 3.0 0.00 0.00 0.00
20260505001124 79 190 3.0 5.0 0.00 0.00 0.00
20260505000625 79 199 1.0 5.0 0.00 0.00 0.00
20260505000124 79 107 1.0 3.0 0.00 0.00 0.00
20260504235625 79 197 4.0 3.0 0.00 0.00 0.00
20260504235125 80 148 2.0 5.0 0.00 0.00 0.00
20260504234624 79 158 5.0 4.0 0.00 0.00 0.00
20260504233624 80 149 1.0 3.0 0.00 0.00 0.00
20260504232624 80 160 5.0 3.0 0.00 0.00 0.00
20260504232124 81 238 4.0 4.0 0.00 0.00 0.00
20260504231625 81 201 4.0 13.0 0.00 0.00 0.00
20260504231124 80 220 5.0 6.0 0.00 0.00 0.00
20260504230624 80 234 6.0 8.0 0.00 0.00 0.00
20260504230125 81 193 6.0 6.0 0.00 0.00 0.00
20260504225624 81 100 5.0 6.0 0.00 0.00 0.00
20260504225124 81 196 8.0 6.0 0.00 0.00 0.00
20260504224625 82 231 6.0 17.0 0.00 0.00 0.00
20260504224125 83 15 6.0 11.0 0.00 0.00 0.00
20260504223625 82 1 10.0 6.0 0.00 0.00 0.00
20260504223124 82 13 6.0 8.0 0.00 0.00 0.00
20260504221124 82 197 3.0 5.0 0.00 0.00 0.00
20260504220625 82 206 6.0 7.0 0.00 0.00 0.00
20260504220125 84 177 5.0 10.0 0.00 0.00 0.00
20260504215625 86 142 7.0 12.0 0.00 0.00 0.00
20260504215125 84 184 7.0 13.0 0.00 0.00 0.00
20260504214625 84 224 7.0 11.0 0.00 0.00 0.00
20260504214125 84 193 6.0 5.0 0.00 0.00 0.00
20260504213625 84 231 4.0 11.0 0.00 0.00 0.00
20260504213125 84 237 9.0 6.0 0.00 0.00 0.00
20260504212625 84 49 3.0 5.0 0.00 0.00 0.00
20260504212125 84 213 6.0 8.0 0.00 0.00 0.00
20260504211625 84 260 5.0 5.0 0.00 0.00 0.00
20260504211125 84 204 7.0 11.0 0.00 0.00 0.00
20260504210125 86 241 9.0 9.0 0.00 0.00 0.00
20260504205625 84 279 6.0 7.0 0.00 0.00 0.00
20260504205125 84 103 4.0 7.0 0.00 0.00 0.00
20260504204625 84 189 6.0 9.0 0.00 0.00 0.00
20260504204125 85 190 9.0 12.0 0.00 0.00 0.00
20260504203625 84 249 6.0 8.0 0.00 0.00 0.00
20260504203125 84 249 7.0 7.0 0.00 0.00 0.00
20260504202625 84 220 7.0 7.0 0.00 0.00 0.00
20260504202125 84 177 6.0 8.0 0.00 0.00 0.00
20260504201625 84 200 6.0 15.0 0.00 0.00 0.00
20260504201125 84 210 7.0 11.0 0.00 0.00 0.00
20260504200626 84 238 7.0 8.0 0.00 0.00 0.00
20260504200125 84 248 4.0 7.0 0.00 0.00 0.00
20260504195625 84 172 4.0 10.0 0.00 0.00 0.00
20260504195125 83 227 5.0 7.0 0.00 0.00 0.00
20260504194125 84 196 7.0 8.0 0.00 0.00 0.00
20260504193625 84 238 6.0 6.0 0.00 0.00 0.00
20260504193126 83 197 4.0 3.0 0.00 0.00 0.00
20260504192625 83 196 5.0 7.0 0.00 0.00 0.00
20260504192125 83 235 3.0 5.0 0.00 0.00 0.00
20260504191125 83 187 7.0 7.0 0.00 0.00 0.00
20260504190625 83 8 3.0 5.0 0.00 0.00 0.00
20260504190125 82 238 7.0 9.0 0.00 0.00 0.00
20260504185125 82 222 8.0 11.0 0.00 0.00 0.00
20260504184625 83 241 6.0 11.0 0.00 0.00 0.00
20260504184126 83 220 5.0 11.0 0.00 0.00 0.00
20260504183625 82 187 5.0 8.0 0.00 0.00 0.00
20260504183125 83 237 3.0 6.0 0.00 0.00 0.00
20260504182625 82 151 5.0 9.0 0.00 0.00 0.00
20260504182126 82 201 5.0 14.0 0.00 0.00 0.00
20260504181625 82 200 6.0 9.0 0.00 0.00 0.00
20260504181125 80 155 4.0 5.0 0.00 0.00 0.00
20260504180626 81 208 6.0 9.0 0.00 0.00 0.00
20260504180125 80 121 4.0 5.0 0.00 0.00 0.00
20260504175625 81 211 5.0 15.0 0.00 0.00 0.00
20260504175125 81 239 8.0 7.0 0.00 0.00 0.00
20260504174626 82 266 8.0 10.0 0.00 0.00 0.00
20260504174125 81 156 5.0 8.0 0.00 0.00 0.00
20260504173625 80 215 6.0 6.0 0.00 0.00 0.00
20260504172125 80 220 5.0 8.0 0.00 0.00 0.00
20260504171126 79 218 4.0 13.0 0.00 0.00 0.00
20260504170626 78 65 8.0 3.0 0.00 0.00 0.00
20260504170126 79 132 8.0 7.0 0.00 0.00 0.00
20260504160126 76 246 8.0 12.0 0.00 0.00 0.00
20260504151127 72 206 7.0 10.0 0.00 0.00 0.00
20260504150626 72 220 6.0 9.0 0.00 0.00 0.00
20260504150126 71 241 6.0 12.0 0.00 0.00 0.00
20260504141126 69 199 7.0 9.0 0.00 0.00 0.00
20260504140626 69 265 6.0 8.0 0.00 0.00 0.00
20260504140126 69 259 5.0 8.0 0.00 0.00 0.00
20260504130626 65 218 6.0 11.0 0.00 0.00 0.00
20260504130126 65 220 3.0 10.0 0.00 0.00 0.00
20260504120127 63 210 2.0 8.0 0.00 0.00 0.00
20260504110627 62 232 3.0 6.0 0.00 0.00 0.00
20260504100128 63 227 4.0 2.0 0.00 0.00 0.00
20260504090127 64 149 3.0 7.0 0.00 0.00 0.00
20260504081627 64 222 3.0 6.0 0.00 0.00 0.00
20260504081127 64 214 3.0 6.0 0.00 0.00 0.00
20260504080128 64 307 2.0 3.0 0.00 0.00 0.00
20260504070128 65 260 2.0 4.0 0.00 0.00 0.00
20260504060128 66 218 2.0 4.0 0.00 0.00 0.00
20260504050629 67 114 1.0 1.0 0.00 0.00 0.00
20260504050128 68 206 2.0 6.0 0.00 0.00 0.00
20260504045628 68 176 1.0 2.0 0.00 0.00 0.00
20260504045129 68 190 4.0 2.0 0.00 0.00 0.00
20260504044628 68 258 4.0 3.0 0.00 0.00 0.00
20260504044128 68 270 2.0 3.0 0.00 0.00 0.00
20260504043629 69 228 3.0 3.0 0.00 0.00 0.00